Flag for Norway Weather past 2 weeks in Ny-Ålesund, Svalbard, Norway

23 °F

Passing clouds.

Feels Like: 6 °F
Forecast: 22 / 27 °F
Wind: 28 mph from Southeast

Location: Svalbard Lufthavn

Current Time: Nov 29, 2015 at 2:02:19 AM

Latest Report: Nov 29, 2015 at 12:50 AM

Visibility: N/A

Pressure: 29.21 "Hg

Humidity: 68%

Dew point: 14 °F

Location of Ny-ÅlesundLocation

Historic Weather in Ny-Ålesund — Graph


Ny-Ålesund temperature yesterday

Maximum temperature yesterday: 27 °F (at 1:20 AM)
Minimum temperature yesterday: 23 °F (at 1:50 PM)
Average temperature yesterday: 25 °F

Past Weeks' High & Low Weather Summary

High36 °F (Nov 15, 10:04 AM)93% (Nov 15, 2:20 PM)30.04 "Hg (Nov 15, 2:20 PM)
Low10 °F (Nov 24, 3:50 AM)53% (Nov 21, 1:50 AM)29.00 "Hg (Nov 27, 1:50 AM)
Average23 °F70%29.36 "Hg
* Reported Nov 13 11:50 PM — Nov 28 11:50 PM, Ny-Ålesund, Weather by CustomWeather, © 2015

Note: Actual official high and low records may vary slightly from our data, if they occured in-between our weather recording intervals... More about our weather records


Ny-Ålesund weather history for previous 24 hours

Time TempWeatherWind HumidityBarometerVisibility
11:50 PM
Sat, Nov 28
23 °FPassing clouds.24 mph63%29.21 "HgN/A
10:50 PM23 °FPassing clouds.24 mph63%29.24 "HgN/A
9:50 PM25 °FPassing clouds.21 mph54%29.24 "HgN/A
8:50 PM23 °FPassing clouds.30 mph63%29.24 "HgN/A
7:50 PM25 °FPassing clouds.25 mph59%29.24 "HgN/A
6:50 PM25 °FSnow flurries. Partly sunny.28 mph59%29.24 "Hg5 mi
5:50 PM25 °FLight snow. Scattered clouds.31 mph59%29.24 "HgN/A
4:50 PM25 °FScattered clouds.28 mph59%29.24 "HgN/A
3:50 PM25 °FScattered clouds.24 mph63%29.24 "HgN/A
2:50 PM23 °FScattered clouds.24 mph68%29.24 "HgN/A
1:50 PM23 °FPartly sunny.24 mph68%29.24 "HgN/A
12:50 PM25 °FPartly sunny.26 mph63%29.24 "HgN/A
11:50 AM25 °FPartly sunny.28 mph59%29.24 "HgN/A
10:50 AM25 °FPartly sunny.29 mph54%29.24 "HgN/A
9:50 AM25 °FPartly sunny.30 mph59%29.24 "HgN/A
8:50 AM25 °FLight snow. Partly sunny.29 mph63%29.24 "HgN/A
7:50 AM25 °FLight snow. Partly sunny.26 mph63%29.21 "HgN/A
6:50 AM25 °FSnow flurries. Broken clouds.28 mph69%29.21 "HgN/A
5:50 AM25 °FSnow flurries. Partly cloudy.28 mph63%29.21 "Hg4 mi
4:50 AM25 °FSnow flurries. Partly cloudy.31 mph69%29.21 "HgN/A
3:50 AM27 °FPassing clouds.26 mph59%29.18 "HgN/A
2:55 AM27 °FSnow flurries. Partly cloudy.30 mph59%29.18 "HgN/A
Weather by CustomWeather, © 2015

See weather overviewHow to use our weather pages